sat.trackr.live / text

‹ back to catalog

STARLINK-3993

NORAD 52692 · 2022-053AN

PAYLOAD ACTIVE UNKNOWN

§ Identity

Operator
Country
US
Launch date
2022-05-18
Launch site
AFETR
Launch vehicle
Mass (kg)
RCS (m²)

Purposes: comms

External: N2YO · Heavens-Above · Gunter

§ Orbital elements

Epoch: 2026-09-20T04:00:03.000096Z

Period
94.10 min
Inclination
53.1609°
Eccentricity
0.0001550
Mean motion
15.30209085 rev/d
Perigee alt
474.1 km
Apogee alt
476.3 km
Semi-major
6,853.3 km
B*
3.9030e-3
RAAN
348.8858°
Arg perigee
131.6205°
Mean anomaly
105.8662°
Rev number
558

§ Raw data

STARLINK-39931 52692U 22053AN  26263.16670139  .00117103  00000+0  39030-2 0  99972 52692  53.1609 348.8858 0001550 131.6205 105.8662 15.30209085  5582

JSON: /api/v1/satellites/52692 · /tle

For live sub-satellite position, see the globe view (requires WebGL).

§ Visibility from observer

Set your observer location to see the next 7 days of passes ≥ 10°. The values pass through the URL so the page stays shareable.

No JS? Fill the form by hand. The geolocation button needs JavaScript.